{"data":{"norad_id":62621,"epoch":"2026-09-11T18:04:09.475680Z","epoch_age_seconds":770736,"freshness":"AGED","line1":"1 62621U 25009N   26254.75288745  .00133604  00000+0  15942-2 0  9997","line2":"2 62621  97.3884 340.4668 0002599 286.9493  73.1479 15.60601301 92426","mean_motion":15.60601301,"eccentricity":0.0002599,"inclination_deg":97.3884,"raan_deg":340.4668,"arg_perigee_deg":286.9493,"mean_anomaly_deg":73.1479,"bstar":0.0015942,"rev_number":9242,"period_min":92.272126075845,"perigee_km":384.16108018693,"apogee_km":387.67703652606,"semimajor_km":6764.0560583565,"source":"CELESTRAK","updated_at":"2026-09-12T09:00:27.517256Z"}}